Regional Weather Roundup
Issued by NWS

Home | Current Version | Previous Version | Graphics & Text | Print | Product List | Glossary On
Versions: 1 2 3 4 5 6 7 8 9 10 11 12 13 14 15 16 17 18 19 20 21 22 23 24 25 26 27 28 29 30 31 32 33 34 35 36 37 38 39 40 41 42 43 44 45 46 47 48 49 50
000
ASUS43 KLOT 250508
RWRIL

ILLINOIS REGIONAL WEATHER ROUNDUP
NATIONAL WEATHER SERVICE CHICAGO/ROMEOVILLE IL
1200 AM CDT WED APR 25 2018

NOTE: "FAIR" INDICATES FEW OR NO CLOUDS BELOW 12,000 FEET WITH NO
SIGNIFICANT WEATHER AND/OR OBSTRUCTIONS TO VISIBILITY.

* THESE STATIONS ARE NOT UNDER NWS QUALITY CONTROL. THEY ALSO MAY NOT
  REPORT WEATHER SUCH AS PRECIPITATION OR FOG.

ILZ001-002-007-009-015-016-024-250600-
NORTHWEST ILLINOIS

CITY           SKY/WX    TMP DP  RH WIND       PRES   REMARKS
MOLINE         FAIR      64  39  39 N12       30.00S
STERLING*      MOCLDY    53  40  61 NE3       30.02R
SAVANNA*       CLOUDY    59  33  37 N5        30.03R
$$

ILZ003-004-008-010-011-017-018-250600-
NORTH CENTRAL ILLINOIS

CITY           SKY/WX    TMP DP  RH WIND       PRES   REMARKS
ROCKFORD       CLOUDY    53  46  77 NE12      30.06R
FREEPORT*      CLOUDY    52  32  46 CALM      30.05S
ROCHELLE*      MOCLDY    49  43  79 NE7       30.04R
DE KALB*       FAIR      48  46  91 NE8       30.05R
PERU*          FAIR      55  47  75 E3        30.02R
$$

ILZ005-006-012>014-019>023-250600-
NORTHEAST ILLINOIS

CITY           SKY/WX    TMP DP  RH WIND       PRES   REMARKS
CHICAGO-OHARE  FAIR      48  44  86 N10       30.02R
CHICAGO-MIDWAY FAIR      50  45  83 N8        30.02R
AURORA         FAIR      50  46  86 NE8       30.02R
LANSING*       FAIR      44  44 100 N3        30.01S
JOLIET*        FAIR      52  48  88 CALM      30.01R
WAUKEGAN       FAIR      45  34  65 N14G20    30.05R
DUPAGE AIRPORT FAIR      47  45  93 N6        30.02R
KANKAKEE*      FAIR      45  44  95 N3        30.01S
WHEELING       FAIR      50  46  86 N7        30.05R
MORRIS*        FAIR      49  45  87 CALM      30.00S
ROMEOVILLE*    FAIR      49  46  92 NE10      30.02R
NORTHERLY ISL    N/A     46  43  89 NW9         N/A
$$

LMZ740>746-250600-
SOUTHERN LAKE MICHIGAN

STATION/POSITION SKY/WX   TEMP    WIND        PRES    VSBY  WAVE
                          AIR SEA DIR/SP/G                  HT/PER
                          (F)     (DEG/KT/KT) (MB)    (MI)  (FT/S)
HARRISON CRIB              41     340/ 15/ 16   N/A
BURNHAM HARBOR             46     340/ 12       N/A
CALUMET HARBOR             41     330/  9/ 11 1015.9S
BURNS HARBOR               42     320/  4/  7 1016.3F
MICHIGAN CITY              43     300/  2/  3   N/A
ST. JOSEPH                 43 44  350/  6/  8 1016.3          1/ 3
$$

ILZ025>027-034>036-040-047-049-050-058-095>099-250600-
WEST-CENTRAL ILLINOIS

CITY           SKY/WX    TMP DP  RH WIND       PRES   REMARKS
QUINCY         PTCLDY    59  38  45 NW10      30.02S
GALESBURG*     FAIR      57  37  47 NW6       30.01F
MACOMB*        PTCLDY    56  34  43 NW10      30.03S
JACKSONVILLE*  CLOUDY    53  33  46 NW3       29.99S
PITTSFIELD*    CLEAR     53  38  56 NW5       30.02S
$$

ILZ028>032-037-038-041>044-048-051>054-059>061-250600-
CENTRAL ILLINOIS

CITY           SKY/WX    TMP DP  RH WIND       PRES   REMARKS
PONTIAC        FAIR      46  46  98 CALM      30.01S
BLOOMINGTON    FAIR      51  49  92 SE5       30.01S
DECATUR        FAIR      49  47  93 CALM      29.99F FOG
PEORIA           N/A     57  42  57 NE6       30.00S
LACON*         FAIR      51  44  76 CALM      30.00S
LINCOLN*       FAIR      52  51  94 CALM      29.99F
SPRINGFIELD    FAIR      53  44  71 CALM      29.99S
TAYLORVILLE    FAIR      52  50  93 S3        30.00S
$$

ILZ033-039-045-046-055>057-062-063-250600-
EAST-CENTRAL ILLINOIS

CITY           SKY/WX    TMP DP  RH WIND       PRES   REMARKS
CHAMPAIGN      FAIR      49  48  97 N5        29.99F FOG
DANVILLE*      FAIR      49  49 100 N7        29.96S
RANTOUL*       FAIR      51  51  98 N3        29.99S
MATTOON        FAIR      50  50 100 NW3       29.98S FOG
PARIS*         FAIR      47  47  99 NW5       29.99S
$$

ILZ079-100>102-250600-
SOUTHWEST ILLINOIS

CITY           SKY/WX    TMP DP  RH WIND       PRES   REMARKS
ALTON          PTCLDY    49  44  82 CALM      29.99F
CAHOKIA*       CLEAR     47  46  97 SE3       29.99S
SPARTA*        CLEAR     51  51 100 CALM      30.01S
$$

ILZ064>066-069>071-074>076-080>082-084>086-088>090-092>094-250600-
SOUTH-CENTRAL ILLINOIS

CITY           SKY/WX    TMP DP  RH WIND       PRES   REMARKS
CARBONDALE     FAIR      50  49  96 CALM      29.99F
CAIRO*         FAIR      53  53  99 CALM      30.00F
EFFINGHAM*     FAIR      50  50 100 CALM      30.00F FOG
MARION         FAIR      50  50  99 CALM      30.00F FOG
MT. VERNON     FOG       47  47 100 CALM      30.00S VSB 1/4
CENTRALIA*     CLEAR     52  51  98 CALM      29.99S
SALEM*         FAIR      53  51  94 CALM      30.00S FOG
METROPOLIS*    FAIR      52  51  98 W3        30.00S
$$

ILZ067-068-072-073-078-083-087-091-250600-
SOUTHEAST ILLINOIS

CITY           SKY/WX    TMP DP  RH WIND       PRES   REMARKS
LAWRENCEVILLE  FAIR      53  52  96 MISG      29.98S
FLORA*         FAIR      51  49  95 CALM      29.99S FOG
FAIRFIELD*     FAIR      48  48 100 CALM      29.97F FOG
HARRISBURG*    FAIR      49  49 100 CALM      29.99S FOG
ROBINSON*      FAIR      48  48 100 NW3       29.99S FOG
CARMI*         FAIR      51  51 100 CALM      29.97F FOG
$$

ABBREVIATIONS USED IN REMARKS
   TC - TEMPERATURE IN CELSIUS
  WCI - WIND CHILL INDEX
   HX - HEAT INDEX
  VSB - VISIBILITY
$$





USA.gov is the U.S. government's official web portal to all federal, state and local government web resources and services.